TimeCST,TemperatureF,Dew PointF,Humidity,Sea Level PressureIn,VisibilityMPH,Wind Direction,Wind SpeedMPH,Gust SpeedMPH,PrecipitationIn,Events,Conditions,WindDirDegrees,DateUTC
12:15 AM,32.0,28.4,87,29.84,10.0,Calm,Calm,-,N/A,,Clear,0,2012-12-19 06:15:00
12:35 AM,32.0,28.4,87,29.83,10.0,NNE,5.8,-,N/A,,Clear,30,2012-12-19 06:35:00
12:55 AM,33.8,30.2,87,29.82,10.0,NE,3.5,-,N/A,,Clear,40,2012-12-19 06:55:00
1:15 AM,32.0,30.2,93,29.82,10.0,Calm,Calm,-,N/A,,Clear,0,2012-12-19 07:15:00
1:35 AM,32.0,30.2,93,29.82,10.0,NNE,5.8,-,N/A,,Clear,30,2012-12-19 07:35:00
1:55 AM,32.0,30.2,93,29.80,10.0,NE,9.2,-,N/A,,Clear,40,2012-12-19 07:55:00
2:15 AM,33.8,30.2,87,29.81,10.0,ENE,5.8,-,N/A,,Clear,60,2012-12-19 08:15:00
2:35 AM,35.6,30.2,81,29.82,10.0,East,5.8,-,N/A,,Clear,80,2012-12-19 08:35:00
2:55 AM,32.0,28.4,87,29.81,10.0,Calm,Calm,-,N/A,,Clear,0,2012-12-19 08:55:00
3:15 AM,33.8,30.2,87,29.80,10.0,Calm,Calm,-,N/A,,Clear,0,2012-12-19 09:15:00
3:35 AM,33.8,32.0,93,29.80,7.0,NE,6.9,-,N/A,,Clear,40,2012-12-19 09:35:00
3:55 AM,35.6,32.0,87,29.79,10.0,NE,8.1,-,N/A,,Clear,40,2012-12-19 09:55:00
4:15 AM,39.2,32.0,75,29.78,7.0,ENE,9.2,-,N/A,,Clear,60,2012-12-19 10:15:00
4:35 AM,41.0,33.8,76,29.77,10.0,East,11.5,-,N/A,,Clear,80,2012-12-19 10:35:00
4:55 AM,41.0,33.8,76,29.76,10.0,East,12.7,-,N/A,,Clear,80,2012-12-19 10:55:00
5:15 AM,41.0,33.8,76,29.74,10.0,East,13.8,-,N/A,,Clear,80,2012-12-19 11:15:00
5:35 AM,42.8,33.8,70,29.75,10.0,East,12.7,-,N/A,,Clear,90,2012-12-19 11:35:00
5:55 AM,42.8,33.8,70,29.75,10.0,East,12.7,-,N/A,,Clear,80,2012-12-19 11:55:00
6:15 AM,41.0,33.8,76,29.74,10.0,East,11.5,-,N/A,,Clear,90,2012-12-19 12:15:00
6:35 AM,42.8,33.8,70,29.73,10.0,ENE,10.4,16.1,N/A,,Clear,70,2012-12-19 12:35:00
6:55 AM,42.8,33.8,70,29.72,10.0,ENE,5.8,-,N/A,,Clear,70,2012-12-19 12:55:00
7:15 AM,42.8,33.8,70,29.73,10.0,East,8.1,-,N/A,,Clear,90,2012-12-19 13:15:00
7:35 AM,42.8,33.8,70,29.70,10.0,East,11.5,-,N/A,,Clear,100,2012-12-19 13:35:00
7:55 AM,42.8,33.8,70,29.69,10.0,East,11.5,-,N/A,,Clear,90,2012-12-19 13:55:00
8:15 AM,42.8,33.8,70,29.73,10.0,ENE,5.8,-,N/A,,Clear,70,2012-12-19 14:15:00
8:35 AM,42.8,33.8,70,29.71,10.0,East,8.1,-,N/A,,Clear,80,2012-12-19 14:35:00
8:55 AM,42.8,35.6,76,29.71,10.0,East,6.9,-,N/A,,Clear,80,2012-12-19 14:55:00
9:15 AM,44.6,35.6,71,29.70,10.0,ENE,9.2,-,N/A,,Clear,60,2012-12-19 15:15:00
9:35 AM,44.6,35.6,71,29.71,10.0,ENE,5.8,-,N/A,,Clear,60,2012-12-19 15:35:00
9:55 AM,44.6,35.6,71,29.70,10.0,East,10.4,-,N/A,,Mostly Cloudy,100,2012-12-19 15:55:00
10:15 AM,46.4,35.6,66,29.70,10.0,ESE,5.8,-,N/A,,Overcast,120,2012-12-19 16:15:00
10:35 AM,46.4,37.4,71,29.69,10.0,SE,10.4,-,N/A,,Overcast,130,2012-12-19 16:35:00
10:55 AM,46.4,37.4,71,29.68,10.0,ESE,5.8,-,N/A,,Overcast,120,2012-12-19 16:55:00
11:15 AM,48.2,41.0,76,29.66,10.0,ESE,4.6,-,N/A,,Overcast,110,2012-12-19 17:15:00
11:35 AM,50.0,41.0,71,29.65,10.0,East,4.6,-,N/A,,Overcast,80,2012-12-19 17:35:00
11:55 AM,50.0,41.0,71,29.64,10.0,East,6.9,-,N/A,,Overcast,80,2012-12-19 17:55:00
12:15 PM,50.0,41.0,71,29.62,10.0,ENE,6.9,-,N/A,,Overcast,60,2012-12-19 18:15:00
12:35 PM,50.0,42.8,76,29.61,10.0,ENE,5.8,-,N/A,,Overcast,60,2012-12-19 18:35:00
12:55 PM,51.8,42.8,71,29.58,10.0,ENE,8.1,-,N/A,,Overcast,60,2012-12-19 18:55:00
1:15 PM,51.8,44.6,76,29.58,10.0,ENE,5.8,-,N/A,,Overcast,70,2012-12-19 19:15:00
1:35 PM,51.8,44.6,76,29.59,10.0,NE,5.8,-,N/A,,Overcast,50,2012-12-19 19:35:00
1:55 PM,53.6,44.6,72,29.56,10.0,East,6.9,-,N/A,,Overcast,80,2012-12-19 19:55:00
2:15 PM,53.6,46.4,77,29.55,10.0,East,9.2,-,N/A,,Overcast,100,2012-12-19 20:15:00
2:35 PM,55.4,46.4,72,29.53,10.0,East,5.8,-,N/A,,Overcast,90,2012-12-19 20:35:00
2:55 PM,55.4,50.0,82,29.52,10.0,ESE,8.1,-,N/A,,Overcast,120,2012-12-19 20:55:00
3:15 PM,55.4,50.0,82,29.50,10.0,ESE,8.1,-,N/A,,Overcast,120,2012-12-19 21:15:00
3:35 PM,55.4,51.8,88,29.51,10.0,SE,5.8,-,N/A,,Mostly Cloudy,130,2012-12-19 21:35:00
3:55 PM,57.2,51.8,82,29.50,10.0,East,4.6,-,N/A,,Overcast,100,2012-12-19 21:55:00
4:15 PM,57.2,51.8,82,29.50,10.0,ENE,3.5,-,N/A,,Overcast,70,2012-12-19 22:15:00
4:35 PM,57.2,51.8,82,29.49,10.0,ESE,4.6,-,N/A,,Overcast,110,2012-12-19 22:35:00
4:55 PM,57.2,53.6,88,29.47,10.0,ESE,8.1,-,N/A,,Overcast,110,2012-12-19 22:55:00
5:15 PM,60.8,55.4,82,29.47,10.0,SSE,12.7,-,N/A,,Mostly Cloudy,150,2012-12-19 23:15:00
5:35 PM,60.8,55.4,82,29.46,10.0,SSE,13.8,-,N/A,,Scattered Clouds,150,2012-12-19 23:35:00
5:55 PM,60.8,55.4,82,29.46,10.0,SSE,12.7,-,N/A,,Mostly Cloudy,160,2012-12-19 23:55:00
6:15 PM,60.8,55.4,82,29.45,10.0,SSE,15.0,20.7,N/A,,Scattered Clouds,160,2012-12-20 00:15:00
6:35 PM,60.8,55.4,82,29.44,10.0,SSE,13.8,-,N/A,,Clear,160,2012-12-20 00:35:00
6:55 PM,60.8,55.4,82,29.44,10.0,SSE,13.8,-,N/A,,Clear,160,2012-12-20 00:55:00
7:15 PM,59.0,55.4,88,29.44,10.0,South,10.4,-,N/A,,Clear,170,2012-12-20 01:15:00
7:35 PM,60.8,55.4,82,29.44,10.0,South,13.8,-,N/A,,Clear,180,2012-12-20 01:35:00
7:55 PM,60.8,55.4,82,29.44,10.0,SSW,13.8,18.4,N/A,,Clear,200,2012-12-20 01:55:00
8:15 PM,60.8,55.4,82,29.44,10.0,SSW,10.4,-,N/A,,Clear,200,2012-12-20 02:15:00
8:35 PM,59.0,55.4,88,29.45,10.0,WSW,8.1,-,N/A,,Scattered Clouds,240,2012-12-20 02:35:00
8:55 PM,59.0,55.4,88,29.42,10.0,WSW,6.9,-,N/A,,Scattered Clouds,250,2012-12-20 02:55:00
9:15 PM,59.0,55.4,88,29.43,7.0,SW,9.2,-,N/A,,Scattered Clouds,230,2012-12-20 03:15:00
9:35 PM,57.2,55.4,94,29.43,7.0,WSW,9.2,-,N/A,,Clear,250,2012-12-20 03:35:00
9:55 PM,59.0,51.8,77,29.42,10.0,WSW,19.6,26.5,N/A,,Clear,240,2012-12-20 03:55:00
10:15 PM,57.2,50.0,77,29.40,10.0,West,13.8,23.0,N/A,,Clear,260,2012-12-20 04:15:00
10:35 PM,55.4,50.0,82,29.42,10.0,WSW,10.4,-,N/A,,Clear,250,2012-12-20 04:35:00
10:55 PM,53.6,50.0,88,29.44,10.0,West,18.4,23.0,N/A,,Scattered Clouds,270,2012-12-20 04:55:00
11:15 PM,50.0,46.4,87,29.42,7.0,NW,18.4,24.2,N/A,,Overcast,310,2012-12-20 05:15:00
11:35 PM,46.4,44.6,93,29.45,10.0,WNW,21.9,28.8,N/A,,Overcast,300,2012-12-20 05:35:00
11:55 PM,44.6,41.0,87,29.43,10.0,NNW,13.8,19.6,N/A,,Overcast,330,2012-12-20 05:55:00